CAPE
0 0 0 0 0 0 0 0 0 0 0 0 0 0 0 0 0 0 0 0 0 0 0 0 0 0 0 0 3 571 1402 1541 1680 1451 1399 1263 1165 1408 1367 1187 1276 1193 1205 1236
0 0 0 0 0 0 0 0 0 0 0 0 0 0 0 0 0 0 0 0 0 0 0 0 0 0 0 0 0 46 969 1734 1717 1602 1633 1506 1458 1387 1301 1221 1070 1003 1132 1185
0 0 0 0 0 0 0 0 0 0 0 0 0 0 0 0 0 0 0 0 0 0 0 0 0 0 0 0 0 16 580 1481 1705 1699 1751 1713 1545 1449 1297 1171 1129 1076 973 882
0 0 0 0 0 0 0 0 0 0 0 0 0 0 0 0 0 0 0 0 0 0 0 0 0 0 0 0 0 58 448 1208 1503 1753 1752 1613 1530 1524 1471 1269 1082 1035 958 833
0 0 0 0 0 0 0 0 0 0 0 0 0 0 0 0 0 0 0 0 0 0 0 0 0 0 0 0 0 13 622 1334 1741 1771 1904 1895 1935 1899 1890 1625 1403 1317 1291 1052
0 0 0 0 0 0 0 0 0 0 0 0 0 0 0 0 0 0 0 0 0 0 0 0 0 0 0 0 0 90 596 1491 1976 2235 2292 2243 2174 2219 1970 1863 1593 1646 1685 1701
0 0 0 0 0 0 0 0 0 0 0 0 0 0 0 0 0 0 0 0 0 0 0 0 0 0 0 0 0 10 263 946 1527 2215 2609 2641 2507 2429 2103 1930 1761 1649 1460 1317
0 0 0 0 0 0 0 0 0 0 0 0 0 0 0 0 0 0 0 0 0 0 0 0 0 0 0 0 0 2 107 424 795 1281 1509 1488 1310 1073 865 855 754 828 926 1112
0 0 0 0 0 0 0 0 0 0 0 0 0 0 0 0 14 12 1 0 0 0 0 0 0 0 0 18 2 0 122 455 516 595 344 189 223 164 68 36 90 87 204 364
0 0 0 0 0 0 0 0 0 2 0 0 0 1 2 0 18 16 11 0 0 0 0 0 0 1 0 0 28 24 101 240 329 135 85 57 56 92 58 9 0 0 2 0
0 0 0 0 0 0 0 0 6 2 0 1 0 0 3 0 4 0 2 0 0 0 0 0 0 0 0 1 0 39 31 11 13 122 121 131 113 101 36 0 5 28 12 0
0 0 0 0 0 0 0 0 0 4 3 10 11 0 0 39 12 0 0 0 0 0 0 0 0 0 0 0 0 0 0 39 1 0 0 33 128 75 62 61 46 77 13 10
0 0 0 0 0 0 0 0 2 8 5 0 6 0 0 8 0 0 2 0 0 0 0 0 0 0 0 0 0 0 0 0 0 0 1 0 1 52 75 125 142 129 112 6
4 0 0 0 0 0 0 0 0 1 5 0 0 0 0 0 0 0 0 0 0 0 0 0 0 0 0 0 0 0 0 0 0 0 0 0 2 3 95 163 160 49 28 1
2 1 0 0 0 0 0 0 0 0 0 1 0 0 0 0 0 0 0 0 0 0 0 0 0 0 0 0 0 0 0 0 0 0 0 0 0 0 13 27 47 2 8 3
0 0 0 0 0 0 0 0 0 0 0 0 0 0 0 0 0 0 0 0 0 0 0 0 0 0 0 0 0 0 0 0 0 0 0 0 0 0 0 0 0 0 0 10
0 0 0 0 0 0 0 0 0 0 0 0 0 0 0 0 0 0 0 0 0 0 0 0 0 0 0 0 0 0 0 0 0 0 0 0 0 0 0 0 0 0 1 0
0 0 0 0 0 0 0 0 0 0 0 0 0 0 0 0 0 0 0 0 0 0 0 0 0 1 2 0 0 0 0 0 0 0 0 0 0 0 0 0 0 0 0 0
0 0 0 0 1 0 0 0 1 1 0 0 0 0 0 0 0 0 0 0 0 0 1 2 9 0 21 9 12 5 4 0 0 0 0 0 0 0 0 0 0 0 0 0
0 0 0 1 1 0 0 0 0 0 0 0 0 0 0 0 2 0 0 0 0 14 22 45 24 21 12 12 19 3 1 1 0 0 0 0 0 0 0 0 0 0 0 0
1 0 0 1 1 2 0 0 0 1 0 0 0 0 4 3 3 3 5 8 20 18 20 23 20 20 14 17 19 16 7 5 4 9 28 13 2 0 0 0 0 0 0 0
0 3 1 2 1 0 0 0 0 0 0 1 3 3 5 4 4 6 8 9 10 13 9 6 16 4 7 8 6 4 7 5 9 14 18 19 15 6 1 0 0 0 0 0
0 2 1 0 0 0 0 0 0 0 0 3 1 1 2 4 5 6 7 6 9 8 8 14 7 5 3 3 4 3 1 3 5 9 11 13 9 9 13 6 1 0 0 0
1 3 6 0 0 0 0 0 0 0 1 1 2 3 5 3 1 5 4 3 4 6 5 6 4 2 2 2 2 2 1 1 3 5 4 15 16 18 19 19 6 0 0 0
1 2 0 0 0 0 0 0 0 0 3 1 2 3 1 6 5 2 2 2 2 2 3 3 5 5 3 2 2 3 6 4 7 3 3 9 15 13 8 7 10 6 3 0
0 3 0 0 0 0 0 0 1 1 2 1 2 1 0 8 2 2 1 2 1 1 2 3 3 4 3 2 3 3 3 3 1 3 5 6 25 10 10 9 17 12 15 3
CIN
-0 -0 -0 -0 -0 -0 -0 -0 -0 -0 -0 -0 -0 -0 -0 -0 -0 -0 -0 -0 -0 -0 -0 -0 -0 -0 -0 -0 -198 -181 -200 -239 -234 -231 -233 -235 -255 -206 -161 -158 -135 -120 -164 -179
-0 -0 -0 -0 -0 -0 -0 -0 -0 -0 -0 -0 -0 -0 -0 -0 -0 -0 -0 -0 -0 -0 -0 -0 -0 -0 -0 -0 -0 -216 -186 -198 -217 -220 -214 -216 -209 -193 -174 -150 -172 -164 -141 -129
-0 -0 -0 -0 -0 -0 -0 -0 -0 -0 -0 -0 -0 -0 -0 -0 -0 -0 -0 -0 -0 -0 -0 -0 -0 -0 -0 -0 -0 -282 -214 -211 -230 -198 -146 -151 -155 -147 -159 -153 -166 -183 -169 -157
-0 -0 -0 -0 -0 -0 -0 -0 -0 -0 -0 -0 -0 -0 -0 -0 -0 -0 -0 -0 -0 -0 -0 -0 -0 -0 -0 -0 -0 -403 -288 -231 -244 -167 -142 -174 -175 -153 -168 -130 -143 -182 -202 -180
-0 -0 -0 -0 -0 -0 -0 -0 -0 -0 -0 -0 -0 -0 -0 -0 -0 -0 -0 -0 -0 -0 -0 -0 -0 -0 -0 -0 -0 -398 -310 -216 -177 -175 -135 -147 -112 -123 -88 -90 -121 -130 -142 -156
-0 -0 -0 -0 -0 -0 -0 -0 -0 -0 -0 -0 -0 -0 -0 -0 -0 -0 -0 -0 -0 -0 -0 -0 -0 -0 -0 -0 -0 -395 -301 -186 -121 -103 -109 -113 -113 -100 -88 -77 -70 -84 -91 -85
-0 -0 -0 -0 -0 -0 -0 -0 -0 -0 -0 -0 -0 -0 -0 -0 -0 -0 -0 -0 -0 -0 -0 -0 -0 -0 -0 -0 -0 -353 -272 -187 -204 -126 -83 -72 -78 -73 -83 -73 -64 -74 -74 -82
-0 -0 -0 -0 -0 -0 -0 -0 -0 -0 -0 -0 -0 -0 -0 -0 -0 -0 -0 -0 -0 -0 -0 -0 -0 -0 -0 -0 -0 -435 -321 -224 -231 -210 -199 -180 -178 -177 -163 -145 -136 -115 -100 -93
-0 -0 -0 -0 -0 -0 -0 -0 -0 -0 -0 -0 -0 -0 -0 -0 -28 -49 -9 -0 -0 -0 -0 -0 -0 -0 -0 -480 -73 -0 -420 -341 -347 -332 -362 -374 -335 -307 -278 -268 -237 -211 -196 -160
-0 -0 -0 -0 -0 -0 -0 -0 -0 -0 -0 -0 -0 -1 -5 -0 -13 -33 -50 -0 -0 -0 -0 -0 -0 -176 -0 -0 -487 -574 -550 -469 -369 -377 -345 -343 -335 -307 -309 -242 -0 -0 -95 -0
-0 -0 -0 -0 -0 -0 -0 -0 -3 -4 -0 -1 -1 -0 -36 -0 -80 -0 -90 -0 -0 -0 -0 -0 -0 -0 -16 -98 -0 -401 -501 -563 -527 -371 -309 -285 -270 -263 -311 -0 -195 -249 -244 -0
-0 -0 -0 -0 -0 -0 -0 -0 -0 -1 -1 -2 -0 -0 -0 -45 -88 -0 -0 -0 -0 -0 -0 -0 -0 -0 -0 -0 -0 -0 -15 -248 -312 -0 -21 -287 -220 -253 -238 -226 -255 -238 -213 -149
-0 -0 -0 -0 -0 -0 -0 -0 -7 -11 -11 -0 -1 -0 -0 -30 -0 -0 -105 -0 -0 -0 -0 -0 -0 -0 -0 -0 -0 -0 -0 -0 -0 -0 -73 -27 -153 -219 -181 -138 -164 -177 -136 -112
-36 -0 -0 -0 -0 -0 -0 -0 -0 -1 -1 -0 -0 -0 -0 -0 -0 -0 -75 -0 -0 -0 -0 -0 -0 -0 -0 -0 -0 -0 -0 -0 -0 -0 -0 -0 -159 -191 -160 -128 -124 -161 -143 -42
-39 -3 -0 -0 -0 -0 -0 -0 -0 -0 -0 -1 -0 -0 -0 -0 -0 -6 -0 -0 -0 -0 -0 -0 -0 -0 -0 -0 -0 -0 -0 -0 -0 -0 -0 -0 -0 -0 -226 -250 -193 -198 -152 -65
-0 -0 -0 -0 -0 -0 -0 -0 -0 -0 -0 -0 -1 -1 -0 -0 -0 -0 -0 -0 -0 -0 -0 -0 -0 -0 -0 -0 -0 -0 -0 -0 -0 -0 -0 -0 -0 -0 -0 -0 -0 -4 -87 -143
-0 -0 -0 -0 -0 -0 -0 -0 -0 -0 -0 -0 -1 -0 -0 -0 -0 -0 -0 -0 -0 -0 -0 -0 -0 -0 -0 -0 -0 -0 -0 -0 -0 -0 -0 -0 -0 -0 -0 -0 -0 -33 -153 -0
-0 -0 -0 -0 -0 -0 -0 -0 -0 -0 -0 -0 -0 -0 -0 -0 -0 -0 -0 -0 -0 -0 -0 -0 -0 -0 -0 -1 -0 -0 -0 -0 -0 -0 -0 -0 -0 -0 -0 -0 -0 -0 -0 -0
-0 -0 -0 -0 -0 -0 -0 -0 -0 -0 -0 -0 -0 -0 -0 -0 -0 -0 -0 -0 -0 -0 -1 -0 -0 -0 -0 -0 -0 -0 -2 -1 -0 -0 -0 -0 -0 -0 -0 -0 -0 -0 -0 -0
-0 -0 -0 -0 -3 -0 -0 -0 -0 -0 -0 -0 -0 -0 -0 -1 -0 -0 -0 -0 -0 -0 -0 -0 -0 -0 -0 -0 -0 -6 -0 -1 -2 -0 -0 -0 -0 -0 -0 -0 -0 -0 -0 -0
-0 -0 -0 -0 -0 -5 -0 -0 -0 -0 -0 -0 -0 -0 -0 -0 -0 -0 -0 -0 -0 -0 -0 -0 -0 -0 -1 -0 -0 -0 -0 -0 -0 -1 -0 -0 -2 -0 -0 -0 -0 -0 -0 -0
-2 -6 -0 -0 -0 -0 -0 -0 -0 -0 -0 -0 -0 -0 -0 -0 -0 -0 -0 -0 -0 -0 -0 -0 -0 -1 -0 -0 -0 -0 -0 -0 -0 -0 -0 -0 -0 -1 -1 -0 -0 -0 -0 -0
-1 -8 -5 -6 -1 -0 -0 -0 -0 -0 -0 -0 -0 -1 -0 -0 -0 -0 -0 -0 -0 -0 -0 -0 -0 -0 -0 -0 -0 -0 -0 -0 -0 -0 -0 -0 -0 -0 -0 -0 -0 -0 -0 -0
-7 -45 -6 -0 -0 -0 -0 -0 -0 -0 -0 -1 -0 -0 -0 -0 -0 -0 -0 -0 -0 -0 -0 -0 -0 -0 -0 -0 -0 -0 -0 -0 -0 -0 -0 -0 -0 -0 -0 -1 -1 -0 -0 -0
-2 -4 -0 -0 -0 -0 -0 -0 -0 -0 -0 -1 -0 -0 -0 -7 -0 -0 -0 -0 -0 -0 -0 -0 -0 -0 -0 -0 -0 -0 -0 -0 -0 -0 -0 -0 -0 -0 -0 -2 -1 -1 -1 -0
-0 -1 -0 -0 -0 -0 -0 -0 -0 -0 -0 -0 -0 -0 -0 -0 -0 -0 -0 -0 -0 -0 -0 -0 -0 -0 -0 -0 -0 -0 -0 -0 -0 -0 -0 -0 -0 -0 -0 -0 -1 -3 -4 -3
Wind_Speed
14 16 17 15 16 20 21 23 27 29 30 30 35 39 37 36 36 36 36 37 36 39 41 41 42 40 39 36 32 30 27 25 21 20 19 20 21 22 25 26 27 26 25 31
16 20 21 16 16 18 20 25 30 31 28 30 39 43 41 34 35 36 37 39 42 39 41 40 41 39 39 39 35 33 32 27 24 23 21 21 24 25 25 24 25 27 28 27
12 14 15 13 15 19 23 27 30 34 33 33 42 49 37 32 33 34 35 36 39 44 45 41 40 38 37 37 38 36 34 31 27 25 23 22 21 26 27 25 23 24 25 26
16 14 16 17 19 18 29 22 29 31 36 41 37 59 42 41 42 38 37 35 36 38 37 39 39 38 35 37 35 35 35 32 29 26 25 25 27 28 31 27 22 22 24 26
16 17 19 22 21 17 28 26 29 32 37 38 38 47 48 40 44 43 40 38 38 34 35 36 39 40 38 35 34 33 31 31 30 27 26 26 31 29 29 28 26 25 25 25
20 20 21 21 21 21 25 29 31 30 34 34 39 38 52 48 44 42 38 33 30 30 31 34 38 40 41 37 33 31 30 29 27 26 25 24 26 28 31 30 30 28 26 26
23 22 21 19 20 22 23 26 32 32 30 35 33 42 44 49 47 37 34 28 26 30 32 35 37 40 43 41 38 31 29 30 26 24 24 24 23 23 25 26 29 29 30 30
26 27 19 18 18 20 20 23 26 35 38 44 41 36 34 35 31 25 24 27 28 28 28 29 32 37 40 43 40 37 33 32 29 27 26 25 23 22 21 21 23 25 27 29
22 23 18 18 19 20 21 23 23 29 31 37 32 33 34 23 26 27 26 28 29 31 31 31 31 33 35 37 38 38 35 31 28 26 24 22 22 22 22 21 22 25 26 28
20 25 22 21 17 19 19 16 23 23 31 35 33 35 31 28 29 30 31 32 32 32 33 33 33 34 32 31 31 32 32 29 25 22 20 20 19 18 19 20 22 23 25 26
17 20 21 18 17 17 18 19 19 21 23 30 36 29 21 28 27 31 34 33 33 32 32 32 32 33 32 28 25 23 25 27 25 23 23 20 18 16 16 18 21 21 22 23
17 18 21 19 17 18 15 17 15 21 24 22 28 30 17 17 28 37 36 34 33 33 32 33 33 31 31 30 27 24 22 25 27 26 24 22 20 17 17 16 16 16 19 19
12 17 22 19 16 15 16 14 14 19 23 24 23 24 16 12 36 41 37 36 35 34 35 35 34 34 33 32 28 26 25 23 27 30 27 25 24 23 20 16 15 15 15 16
11 16 17 19 21 18 19 16 16 19 23 21 16 14 10 10 13 33 35 36 37 38 38 38 39 37 35 33 28 26 26 24 25 26 29 31 30 28 24 18 15 14 14 15
15 19 16 16 17 17 18 18 17 17 14 12 11 13 14 13 13 26 33 39 41 43 44 44 43 42 40 37 36 35 34 33 30 29 29 30 31 31 28 24 21 19 17 15
15 17 17 21 17 15 18 16 15 11 7 10 11 10 21 25 28 25 36 44 46 47 48 47 47 46 46 44 41 40 39 38 37 38 38 34 30 32 33 30 30 23 21 20
14 15 19 21 17 20 19 17 12 5 5 1 6 16 22 19 22 30 45 48 52 53 52 53 53 53 52 50 47 45 42 42 43 44 44 44 39 38 34 33 33 31 27 23
14 15 15 17 19 20 18 15 12 3 11 10 16 19 15 17 26 27 35 25 38 54 57 58 58 59 57 56 55 52 48 47 48 49 49 47 41 41 37 34 32 31 31 28
6 8 13 15 15 16 16 15 9 2 17 8 8 8 15 29 37 26 34 34 31 38 48 53 59 61 60 61 58 56 54 54 56 55 52 49 47 44 42 39 39 34 35 33
6 4 6 12 15 15 20 14 3 19 16 19 19 22 26 27 37 37 54 55 46 38 37 38 46 36 44 58 56 55 61 64 63 59 56 53 49 48 46 43 41 38 36 37
9 8 1 4 12 11 23 22 22 8 11 32 28 26 27 28 29 36 39 44 39 31 35 32 32 31 43 35 41 35 54 63 58 58 56 53 51 50 49 48 46 43 42 40
9 9 9 10 10 28 21 23 24 28 27 25 24 22 27 28 30 35 36 34 35 31 32 29 27 28 28 36 42 45 44 57 50 48 52 54 53 54 53 51 50 48 46 45
12 9 12 9 13 20 26 27 29 27 27 27 25 23 24 29 30 35 37 35 34 30 27 24 24 25 23 20 20 23 41 45 49 50 47 48 54 57 56 55 51 49 47 47
12 10 11 12 18 25 27 23 29 28 31 29 22 19 22 29 32 33 34 32 28 25 24 21 21 21 22 19 17 20 25 42 49 49 40 42 38 51 50 48 49 48 48 48
15 11 10 7 27 25 23 27 28 29 28 26 18 18 22 26 31 31 30 28 24 22 20 20 21 21 21 20 19 16 15 36 37 23 21 35 32 34 37 41 44 45 46 45
10 9 8 11 23 24 26 25 26 27 28 25 22 23 22 24 28 29 28 24 22 20 19 19 21 22 21 20 14 15 13 23 11 9 10 15 29 29 32 33 39 39 40 40
Wind_Direction
315 308 304 313 310 305 307 305 302 303 304 303 297 295 299 300 296 293 293 293 293 289 288 286 285 281 275 267 262 256 253 252 248 247 249 253 256 262 264 265 264 265 259 256
312 306 306 313 314 311 309 307 305 306 309 307 299 294 298 301 300 298 296 293 291 292 291 290 288 284 276 267 260 255 250 250 248 250 253 260 263 266 268 269 265 265 263 268
323 329 344 336 321 310 308 307 307 306 310 308 303 294 302 306 304 302 300 298 296 292 288 288 289 289 279 270 264 256 250 248 249 252 255 262 265 270 268 271 268 263 264 266
322 325 324 326 319 316 305 317 313 310 309 304 313 278 303 306 302 302 302 300 299 297 293 289 287 287 284 275 269 262 255 250 249 249 252 252 258 263 265 270 269 269 264 263
325 327 324 319 318 322 311 319 313 310 308 309 310 303 305 312 306 306 304 303 301 299 297 293 286 282 282 280 273 264 257 252 250 248 249 252 258 263 270 268 272 269 268 265
311 321 320 320 323 320 320 316 313 313 311 303 310 307 307 312 310 309 308 309 308 305 303 296 290 285 278 276 274 266 257 253 251 248 248 251 259 264 267 268 267 270 268 267
314 313 315 319 317 322 321 322 317 313 310 309 318 311 309 310 312 311 313 318 313 305 302 300 297 291 281 273 269 266 259 254 253 252 255 257 261 264 266 267 267 268 269 270
311 313 326 328 323 323 324 322 317 314 314 312 316 314 320 327 330 328 324 321 308 308 315 315 311 305 291 276 268 263 260 256 254 255 258 260 261 263 266 267 270 271 273 276
316 317 331 329 329 327 326 321 326 319 318 317 321 321 325 338 339 335 324 318 316 307 307 311 316 320 306 286 271 263 260 258 255 254 255 255 259 263 265 269 272 275 276 278
320 315 322 326 334 335 330 338 330 330 326 323 326 323 324 333 332 326 319 315 315 315 309 304 304 310 317 305 284 269 262 257 252 251 248 251 254 260 265 269 274 278 280 278
325 320 326 331 330 328 334 331 333 333 331 328 327 333 335 325 322 318 311 313 314 312 314 310 303 304 310 319 311 288 267 257 254 251 253 256 252 254 264 271 274 278 282 279
323 325 321 325 336 335 337 333 330 331 334 330 328 325 339 331 309 307 310 314 315 310 313 312 306 307 308 306 306 307 283 264 258 258 257 257 258 258 264 271 276 278 278 279
329 325 325 330 341 345 342 344 342 337 334 323 324 334 10 347 299 303 304 305 313 311 308 309 307 304 305 305 305 296 292 279 267 260 258 258 259 259 262 267 271 275 276 273
325 318 318 319 328 338 334 332 329 328 325 327 311 276 301 304 275 312 313 306 305 307 306 306 304 301 303 305 306 296 291 288 278 273 267 265 264 260 260 263 265 266 270 269
317 313 317 320 325 331 329 326 324 320 316 312 304 309 276 331 338 336 323 307 301 298 297 297 300 297 296 297 298 293 281 279 280 279 277 274 272 267 262 260 258 262 265 263
322 317 327 324 329 328 327 325 324 313 293 268 258 277 343 340 336 338 325 306 296 295 298 295 294 294 292 292 293 289 286 279 277 275 272 275 276 271 264 260 259 257 256 258
319 324 328 330 349 344 339 349 356 11 15 352 253 257 327 320 333 332 315 307 297 297 297 294 292 288 287 288 289 286 284 276 273 271 268 265 267 266 268 264 258 255 253 252
312 324 335 339 347 344 6 13 22 68 222 234 251 267 279 275 276 279 326 294 292 297 296 294 293 289 286 286 284 282 279 277 274 271 268 267 266 263 264 264 260 256 253 250
304 329 343 346 351 349 8 27 52 118 250 251 271 290 288 284 285 286 331 329 322 282 279 278 285 286 286 285 283 280 276 275 274 271 267 264 262 261 260 259 257 256 253 252
350 7 7 1 355 2 329 25 191 261 258 6 333 287 290 295 288 287 311 300 286 283 282 275 273 270 266 274 286 282 276 273 271 269 266 262 259 257 256 255 255 256 254 254
346 355 359 355 354 352 312 267 269 223 253 288 287 289 292 292 289 293 292 290 287 293 286 289 285 289 307 301 298 285 283 275 273 269 265 259 255 255 255 254 253 253 253 254
358 6 9 5 1 271 288 280 279 281 278 284 290 297 295 298 302 295 297 297 297 299 296 302 302 303 291 311 304 296 288 275 279 273 264 257 253 252 252 251 251 250 250 250
348 5 3 11 359 313 278 272 295 281 283 288 291 299 305 305 308 302 299 300 299 302 311 324 322 323 319 305 302 286 297 289 277 269 266 260 255 252 249 246 246 247 247 248
352 5 3 7 330 273 273 317 290 288 292 292 295 314 322 310 308 307 305 305 309 317 321 328 332 330 331 322 302 277 267 252 266 263 267 258 257 247 243 242 243 244 245 246
342 10 17 16 275 275 280 279 288 291 293 295 307 325 323 313 309 312 313 313 316 320 331 343 346 341 339 331 305 318 281 260 234 218 253 252 250 250 236 237 240 243 245 244
360 3 11 7 284 276 272 279 287 292 296 299 305 314 324 319 316 315 316 318 324 320 338 351 358 359 352 350 353 4 279 285 325 172 226 237 242 240 243 240 242 243 247 246